Time,TemperatureF,DewpointF,PressureIn,WindDirection,WindDirectionDegrees,WindSpeedMPH,WindSpeedGustMPH,Humidity,HourlyPrecipIn,Conditions,Clouds,dailyrainin,SoftwareType,DateUTC
2013-02-19 00:01:00,40.0,32.7,30.43,NE,45,0.0,5.0,75,0.00,,,0.00,Weather View 32 v70,2013-02-19 05:01:00,
2013-02-19 00:06:00,40.0,32.7,30.42,NE,45,0.0,5.0,75,0.00,,,0.00,Weather View 32 v70,2013-02-19 05:06:00,
2013-02-19 00:11:00,39.0,31.7,30.42,NNE,22,0.0,5.0,75,0.00,,,0.00,Weather View 32 v70,2013-02-19 05:11:00,
2013-02-19 00:16:00,39.0,31.7,30.41,SW,225,0.0,5.0,75,0.00,,,0.00,Weather View 32 v70,2013-02-19 05:16:00,
2013-02-19 00:21:00,39.0,31.7,30.41,NW,315,0.0,5.0,75,0.00,,,0.00,Weather View 32 v70,2013-02-19 05:21:00,
2013-02-19 00:26:00,39.0,31.7,30.41,NE,45,0.0,5.0,75,0.00,,,0.00,Weather View 32 v70,2013-02-19 05:26:00,
2013-02-19 00:31:00,39.0,31.7,30.41,NE,45,0.0,5.0,75,0.00,,,0.00,Weather View 32 v70,2013-02-19 05:31:00,
2013-02-19 00:36:00,39.0,31.7,30.40,NE,45,0.0,3.0,75,0.00,,,0.00,Weather View 32 v70,2013-02-19 05:36:00,
2013-02-19 00:41:00,39.0,31.7,30.40,NE,45,0.0,2.0,75,0.00,,,0.00,Weather View 32 v70,2013-02-19 05:41:00,
2013-02-19 00:46:00,39.0,31.7,30.41,NE,45,0.0,2.0,75,0.00,,,0.00,Weather View 32 v70,2013-02-19 05:46:00,
2013-02-19 00:56:00,38.0,30.8,30.40,NE,45,0.0,2.0,75,0.00,,,0.00,Weather View 32 v70,2013-02-19 05:56:00,
2013-02-19 01:01:00,38.0,30.8,30.40,NE,45,0.0,2.0,75,0.00,,,0.00,Weather View 32 v70,2013-02-19 06:01:00,
2013-02-19 01:06:00,38.0,30.8,30.41,NE,45,0.0,2.0,75,0.00,,,0.00,Weather View 32 v70,2013-02-19 06:06:00,
2013-02-19 01:11:00,38.0,30.8,30.41,NE,45,0.0,2.0,75,0.00,,,0.00,Weather View 32 v70,2013-02-19 06:11:00,
2013-02-19 01:16:00,38.0,30.8,30.41,North,360,0.0,0.0,75,0.00,,,0.00,Weather View 32 v70,2013-02-19 06:16:00,
2013-02-19 01:21:00,38.0,30.8,30.41,NE,45,0.0,0.0,75,0.00,,,0.00,Weather View 32 v70,2013-02-19 06:21:00,
2013-02-19 01:26:00,37.0,30.1,30.41,NNW,337,0.0,0.0,76,0.00,,,0.00,Weather View 32 v70,2013-02-19 06:26:00,
2013-02-19 01:31:00,37.0,30.1,30.41,NNW,337,0.0,0.0,76,0.00,,,0.00,Weather View 32 v70,2013-02-19 06:31:00,
2013-02-19 01:36:00,37.0,30.1,30.41,North,360,0.0,0.0,76,0.00,,,0.00,Weather View 32 v70,2013-02-19 06:36:00,
2013-02-19 01:41:00,37.0,30.1,30.41,North,360,0.0,0.0,76,0.00,,,0.00,Weather View 32 v70,2013-02-19 06:41:00,
2013-02-19 01:46:00,37.0,30.1,30.40,North,360,0.0,0.0,76,0.00,,,0.00,Weather View 32 v70,2013-02-19 06:46:00,
2013-02-19 01:51:00,37.0,30.1,30.40,North,360,0.0,0.0,76,0.00,,,0.00,Weather View 32 v70,2013-02-19 06:51:00,
2013-02-19 02:01:00,37.0,30.1,30.39,North,360,0.0,0.0,76,0.00,,,0.00,Weather View 32 v70,2013-02-19 07:01:00,
2013-02-19 02:06:00,36.0,29.2,30.39,North,360,0.0,0.0,76,0.00,,,0.00,Weather View 32 v70,2013-02-19 07:06:00,
2013-02-19 02:11:00,36.0,29.2,30.39,North,360,0.0,0.0,76,0.00,,,0.00,Weather View 32 v70,2013-02-19 07:11:00,
2013-02-19 02:16:00,36.0,29.2,30.39,North,360,0.0,0.0,76,0.00,,,0.00,Weather View 32 v70,2013-02-19 07:16:00,
2013-02-19 02:21:00,36.0,29.2,30.39,North,360,0.0,0.0,76,0.00,,,0.00,Weather View 32 v70,2013-02-19 07:21:00,
2013-02-19 02:26:00,36.0,29.2,30.39,North,360,0.0,0.0,76,0.00,,,0.00,Weather View 32 v70,2013-02-19 07:26:00,
2013-02-19 02:31:00,36.0,29.2,30.39,North,360,0.0,0.0,76,0.00,,,0.00,Weather View 32 v70,2013-02-19 07:31:00,
2013-02-19 02:36:00,36.0,29.2,30.38,North,360,0.0,0.0,76,0.00,,,0.00,Weather View 32 v70,2013-02-19 07:36:00,
2013-02-19 02:41:00,35.0,28.2,30.38,North,360,0.0,0.0,76,0.00,,,0.00,Weather View 32 v70,2013-02-19 07:41:00,
2013-02-19 02:46:00,35.0,28.2,30.38,North,360,0.0,0.0,76,0.00,,,0.00,Weather View 32 v70,2013-02-19 07:46:00,
2013-02-19 02:51:00,35.0,28.2,30.38,North,360,0.0,0.0,76,0.00,,,0.00,Weather View 32 v70,2013-02-19 07:51:00,
2013-02-19 02:56:00,35.0,28.2,30.37,North,360,0.0,0.0,76,0.00,,,0.00,Weather View 32 v70,2013-02-19 07:56:00,
2013-02-19 03:01:00,35.0,28.2,30.37,North,360,0.0,0.0,76,0.00,,,0.00,Weather View 32 v70,2013-02-19 08:01:00,
2013-02-19 03:06:00,35.0,28.2,30.36,North,360,0.0,0.0,76,0.00,,,0.00,Weather View 32 v70,2013-02-19 08:06:00,
2013-02-19 03:16:00,35.0,28.2,30.36,North,360,0.0,0.0,76,0.00,,,0.00,Weather View 32 v70,2013-02-19 08:16:00,
2013-02-19 03:21:00,35.0,28.2,30.36,North,360,0.0,0.0,76,0.00,,,0.00,Weather View 32 v70,2013-02-19 08:21:00,
2013-02-19 03:26:00,35.0,28.2,30.35,North,360,0.0,0.0,76,0.00,,,0.00,Weather View 32 v70,2013-02-19 08:26:00,
2013-02-19 03:31:00,35.0,28.2,30.35,North,360,0.0,0.0,76,0.00,,,0.00,Weather View 32 v70,2013-02-19 08:31:00,
2013-02-19 03:36:00,35.0,28.2,30.35,North,360,0.0,0.0,76,0.00,,,0.00,Weather View 32 v70,2013-02-19 08:36:00,
2013-02-19 03:41:00,35.0,28.2,30.35,North,360,0.0,0.0,76,0.00,,,0.00,Weather View 32 v70,2013-02-19 08:41:00,
2013-02-19 03:46:00,34.0,27.2,30.35,North,360,0.0,0.0,76,0.00,,,0.00,Weather View 32 v70,2013-02-19 08:46:00,
2013-02-19 03:51:00,34.0,27.2,30.35,North,360,0.0,0.0,76,0.00,,,0.00,Weather View 32 v70,2013-02-19 08:51:00,
2013-02-19 03:56:00,34.0,27.2,30.34,North,360,0.0,0.0,76,0.00,,,0.00,Weather View 32 v70,2013-02-19 08:56:00,
2013-02-19 04:01:00,34.0,27.2,30.34,North,360,0.0,0.0,76,0.00,,,0.00,Weather View 32 v70,2013-02-19 09:01:00,
2013-02-19 04:06:00,34.0,27.2,30.34,North,360,0.0,0.0,76,0.00,,,0.00,Weather View 32 v70,2013-02-19 09:06:00,
2013-02-19 04:11:00,34.0,27.2,30.34,North,360,0.0,0.0,76,0.00,,,0.00,Weather View 32 v70,2013-02-19 09:11:00,
2013-02-19 04:16:00,33.0,26.3,30.33,North,360,0.0,0.0,76,0.00,,,0.00,Weather View 32 v70,2013-02-19 09:16:00,
2013-02-19 04:21:00,33.0,26.3,30.33,North,360,0.0,0.0,76,0.00,,,0.00,Weather View 32 v70,2013-02-19 09:21:00,
2013-02-19 04:26:00,33.0,26.3,30.33,North,360,0.0,0.0,76,0.00,,,0.00,Weather View 32 v70,2013-02-19 09:26:00,
2013-02-19 04:31:00,33.0,26.3,30.33,North,360,0.0,0.0,76,0.00,,,0.00,Weather View 32 v70,2013-02-19 09:31:00,
2013-02-19 04:41:00,33.0,26.3,30.33,North,360,0.0,0.0,76,0.00,,,0.00,Weather View 32 v70,2013-02-19 09:41:00,
2013-02-19 04:50:00,33.0,26.3,30.33,North,360,0.0,0.0,76,0.00,,,0.00,Weather View 32 v70,2013-02-19 09:50:00,
2013-02-19 04:56:00,33.0,26.3,30.33,North,360,0.0,0.0,76,0.00,,,0.00,Weather View 32 v70,2013-02-19 09:56:00,
2013-02-19 05:01:00,33.0,26.3,30.33,NE,45,0.0,0.0,76,0.00,,,0.00,Weather View 32 v70,2013-02-19 10:01:00,
2013-02-19 05:06:00,33.0,26.3,30.32,NE,45,0.0,0.0,76,0.00,,,0.00,Weather View 32 v70,2013-02-19 10:06:00,
2013-02-19 05:11:00,33.0,26.3,30.32,NE,45,0.0,0.0,76,0.00,,,0.00,Weather View 32 v70,2013-02-19 10:11:00,
2013-02-19 05:16:00,33.0,26.3,30.32,NE,45,0.0,0.0,76,0.00,,,0.00,Weather View 32 v70,2013-02-19 10:16:00,
2013-02-19 05:21:00,33.0,26.3,30.32,NE,45,0.0,0.0,76,0.00,,,0.00,Weather View 32 v70,2013-02-19 10:21:00,
2013-02-19 05:26:00,33.0,26.3,30.31,NE,45,0.0,0.0,76,0.00,,,0.00,Weather View 32 v70,2013-02-19 10:26:00,
2013-02-19 05:31:00,33.0,26.3,30.31,NE,45,0.0,0.0,76,0.00,,,0.00,Weather View 32 v70,2013-02-19 10:31:00,
2013-02-19 05:36:00,33.0,26.3,30.31,NE,45,0.0,0.0,76,0.00,,,0.00,Weather View 32 v70,2013-02-19 10:36:00,
2013-02-19 05:46:00,33.0,26.3,30.31,NE,45,0.0,0.0,76,0.00,,,0.00,Weather View 32 v70,2013-02-19 10:46:00,
2013-02-19 05:51:00,33.0,26.3,30.31,NE,45,0.0,0.0,76,0.00,,,0.00,Weather View 32 v70,2013-02-19 10:51:00,
2013-02-19 05:56:00,33.0,26.3,30.31,NE,45,0.0,0.0,76,0.00,,,0.00,Weather View 32 v70,2013-02-19 10:56:00,
2013-02-19 06:01:00,33.0,26.3,30.31,NE,45,0.0,0.0,76,0.00,,,0.00,Weather View 32 v70,2013-02-19 11:01:00,
2013-02-19 06:06:00,34.0,27.2,30.31,NE,45,0.0,0.0,76,0.00,,,0.00,Weather View 32 v70,2013-02-19 11:06:00,
2013-02-19 06:11:00,34.0,27.2,30.31,NE,45,0.0,0.0,76,0.00,,,0.00,Weather View 32 v70,2013-02-19 11:11:00,
2013-02-19 06:16:00,34.0,27.2,30.30,NE,45,0.0,0.0,76,0.00,,,0.00,Weather View 32 v70,2013-02-19 11:16:00,
2013-02-19 06:21:00,34.0,27.2,30.30,NE,45,0.0,0.0,76,0.00,,,0.00,Weather View 32 v70,2013-02-19 11:21:00,
2013-02-19 06:26:00,34.0,27.2,30.30,NE,45,0.0,0.0,76,0.00,,,0.00,Weather View 32 v70,2013-02-19 11:26:00,
2013-02-19 06:31:00,34.0,27.2,30.30,NE,45,0.0,0.0,76,0.00,,,0.00,Weather View 32 v70,2013-02-19 11:31:00,
2013-02-19 06:36:00,34.0,27.2,30.30,NE,45,0.0,0.0,76,0.00,,,0.00,Weather View 32 v70,2013-02-19 11:36:00,
2013-02-19 06:41:00,34.0,27.2,30.30,NE,45,0.0,0.0,76,0.00,,,0.00,Weather View 32 v70,2013-02-19 11:41:00,
2013-02-19 06:46:00,34.0,27.2,30.30,East,90,0.0,0.0,76,0.00,,,0.00,Weather View 32 v70,2013-02-19 11:46:00,
2013-02-19 06:51:00,34.0,27.2,30.30,East,90,0.0,0.0,76,0.00,,,0.00,Weather View 32 v70,2013-02-19 11:51:00,
2013-02-19 07:01:00,35.0,28.2,30.28,East,90,0.0,0.0,76,0.00,,,0.00,Weather View 32 v70,2013-02-19 12:01:00,
2013-02-19 07:06:00,35.0,28.2,30.28,East,90,0.0,0.0,76,0.00,,,0.00,Weather View 32 v70,2013-02-19 12:06:00,
2013-02-19 07:11:00,35.0,28.2,30.28,East,90,0.0,0.0,76,0.00,,,0.00,Weather View 32 v70,2013-02-19 12:11:00,
2013-02-19 07:16:00,35.0,28.2,30.28,East,90,0.0,0.0,76,0.00,,,0.00,Weather View 32 v70,2013-02-19 12:16:00,
2013-02-19 07:21:00,35.0,28.2,30.28,East,90,0.0,0.0,76,0.00,,,0.00,Weather View 32 v70,2013-02-19 12:21:00,
2013-02-19 07:26:00,36.0,29.2,30.28,East,90,0.0,0.0,76,0.00,,,0.00,Weather View 32 v70,2013-02-19 12:26:00,
2013-02-19 07:31:00,36.0,29.2,30.28,East,90,0.0,0.0,76,0.00,,,0.00,Weather View 32 v70,2013-02-19 12:31:00,
2013-02-19 07:36:00,36.0,29.2,30.28,East,90,0.0,0.0,76,0.00,,,0.00,Weather View 32 v70,2013-02-19 12:36:00,
2013-02-19 07:41:00,36.0,29.2,30.28,East,90,0.0,0.0,76,0.00,,,0.00,Weather View 32 v70,2013-02-19 12:41:00,
2013-02-19 07:46:00,37.0,30.1,30.28,East,90,0.0,0.0,76,0.00,,,0.00,Weather View 32 v70,2013-02-19 12:46:00,
2013-02-19 07:51:00,37.0,30.1,30.28,East,90,0.0,0.0,76,0.00,,,0.00,Weather View 32 v70,2013-02-19 12:51:00,
2013-02-19 07:56:00,37.0,30.1,30.27,East,90,0.0,0.0,76,0.00,,,0.00,Weather View 32 v70,2013-02-19 12:56:00,
2013-02-19 08:01:00,38.0,30.8,30.27,East,90,0.0,0.0,75,0.00,,,0.00,Weather View 32 v70,2013-02-19 13:01:00,
2013-02-19 08:06:00,38.0,30.8,30.26,East,90,0.0,0.0,75,0.00,,,0.00,Weather View 32 v70,2013-02-19 13:06:00,
2013-02-19 08:16:00,39.0,31.7,30.26,East,90,0.0,0.0,75,0.00,,,0.00,Weather View 32 v70,2013-02-19 13:16:00,
2013-02-19 08:21:00,40.0,32.7,30.26,East,90,0.0,0.0,75,0.00,,,0.00,Weather View 32 v70,2013-02-19 13:21:00,
2013-02-19 08:26:00,40.0,32.7,30.25,East,90,0.0,0.0,75,0.00,,,0.00,Weather View 32 v70,2013-02-19 13:26:00,
2013-02-19 08:31:00,41.0,33.7,30.25,SE,135,0.0,2.0,75,0.00,,,0.00,Weather View 32 v70,2013-02-19 13:31:00,
2013-02-19 08:36:00,41.0,33.7,30.24,SE,135,0.0,2.0,75,0.00,,,0.00,Weather View 32 v70,2013-02-19 13:36:00,
2013-02-19 08:41:00,42.0,34.6,30.24,SE,135,0.0,2.0,75,0.00,,,0.00,Weather View 32 v70,2013-02-19 13:41:00,
2013-02-19 08:46:00,42.0,34.6,30.24,East,90,0.0,2.0,75,0.00,,,0.00,Weather View 32 v70,2013-02-19 13:46:00,
2013-02-19 08:51:00,43.0,35.9,30.24,ENE,67,0.0,2.0,76,0.00,,,0.00,Weather View 32 v70,2013-02-19 13:51:00,
2013-02-19 08:56:00,43.0,35.9,30.23,East,90,0.0,2.0,76,0.00,,,0.00,Weather View 32 v70,2013-02-19 13:56:00,
2013-02-19 09:01:00,43.0,35.9,30.23,East,90,0.0,2.0,76,0.00,,,0.00,Weather View 32 v70,2013-02-19 14:01:00,
2013-02-19 09:06:00,44.0,36.9,30.22,East,90,0.0,2.0,76,0.00,,,0.00,Weather View 32 v70,2013-02-19 14:06:00,
2013-02-19 09:11:00,44.0,36.9,30.22,East,90,0.0,2.0,76,0.00,,,0.00,Weather View 32 v70,2013-02-19 14:11:00,
2013-02-19 09:16:00,44.0,36.9,30.22,East,90,0.0,2.0,76,0.00,,,0.00,Weather View 32 v70,2013-02-19 14:16:00,
2013-02-19 09:21:00,45.0,37.9,30.22,WNW,292,0.0,2.0,76,0.00,,,0.00,Weather View 32 v70,2013-02-19 14:21:00,
2013-02-19 09:26:00,45.0,37.9,30.21,SE,135,0.0,2.0,76,0.00,,,0.00,Weather View 32 v70,2013-02-19 14:26:00,
2013-02-19 09:36:00,45.0,37.9,30.21,East,90,0.0,2.0,76,0.00,,,0.00,Weather View 32 v70,2013-02-19 14:36:00,
2013-02-19 09:41:00,45.0,37.9,30.21,East,90,0.0,2.0,76,0.00,,,0.00,Weather View 32 v70,2013-02-19 14:41:00,
2013-02-19 09:46:00,46.0,38.8,30.21,East,90,0.0,2.0,76,0.00,,,0.00,Weather View 32 v70,2013-02-19 14:46:00,
2013-02-19 09:51:00,46.0,38.8,30.21,NE,45,0.0,2.0,76,0.00,,,0.00,Weather View 32 v70,2013-02-19 14:51:00,
2013-02-19 09:56:00,46.0,38.8,30.20,NNE,22,0.0,2.0,76,0.00,,,0.00,Weather View 32 v70,2013-02-19 14:56:00,
2013-02-19 10:01:00,46.0,38.8,30.20,NNE,22,0.0,2.0,76,0.00,,,0.00,Weather View 32 v70,2013-02-19 15:01:00,
2013-02-19 10:06:00,46.0,38.8,30.20,North,360,0.0,2.0,76,0.00,,,0.00,Weather View 32 v70,2013-02-19 15:06:00,
2013-02-19 10:11:00,46.0,38.8,30.20,West,270,0.0,2.0,76,0.00,,,0.00,Weather View 32 v70,2013-02-19 15:11:00,
2013-02-19 10:16:00,46.0,38.8,30.20,West,270,0.0,2.0,76,0.00,,,0.00,Weather View 32 v70,2013-02-19 15:16:00,
2013-02-19 10:21:00,47.0,39.8,30.20,North,360,0.0,2.0,76,0.00,,,0.00,Weather View 32 v70,2013-02-19 15:21:00,
2013-02-19 10:31:00,47.0,39.8,30.19,NE,45,0.0,1.0,76,0.00,,,0.00,Weather View 32 v70,2013-02-19 15:31:00,
2013-02-19 10:36:00,47.0,39.8,30.18,NE,45,0.0,1.0,76,0.00,,,0.00,Weather View 32 v70,2013-02-19 15:36:00,
2013-02-19 10:41:00,47.0,39.8,30.18,NE,45,0.0,2.0,76,0.00,,,0.00,Weather View 32 v70,2013-02-19 15:41:00,
2013-02-19 10:46:00,48.0,41.1,30.18,SW,225,0.0,3.0,77,0.00,,,0.00,Weather View 32 v70,2013-02-19 15:46:00,
2013-02-19 10:51:00,48.0,41.1,30.18,SW,225,0.0,4.0,77,0.00,,,0.00,Weather View 32 v70,2013-02-19 15:51:00,
2013-02-19 11:01:00,49.0,42.1,30.17,West,270,0.0,5.0,77,0.00,,,0.00,Weather View 32 v70,2013-02-19 16:01:00,
2013-02-19 11:06:00,49.0,42.1,30.16,North,360,0.0,5.0,77,0.00,,,0.00,Weather View 32 v70,2013-02-19 16:06:00,
2013-02-19 11:11:00,49.0,42.1,30.16,NE,45,0.0,5.0,77,0.00,,,0.00,Weather View 32 v70,2013-02-19 16:11:00,
2013-02-19 11:16:00,49.0,42.1,30.16,NW,315,0.0,5.0,77,0.00,,,0.00,Weather View 32 v70,2013-02-19 16:16:00,
2013-02-19 11:21:00,50.0,43.1,30.16,SE,135,0.0,5.0,77,0.00,,,0.00,Weather View 32 v70,2013-02-19 16:21:00,
2013-02-19 11:31:00,50.0,43.1,30.14,West,270,2.0,11.0,77,0.00,,,0.00,Weather View 32 v70,2013-02-19 16:31:00,
2013-02-19 11:36:00,51.0,44.0,30.14,SW,225,0.0,11.0,77,0.00,,,0.00,Weather View 32 v70,2013-02-19 16:36:00,
2013-02-19 11:41:00,51.0,44.0,30.14,SW,225,3.0,11.0,77,0.00,,,0.00,Weather View 32 v70,2013-02-19 16:41:00,
2013-02-19 11:46:00,51.0,44.0,30.13,SW,225,0.0,14.0,77,0.00,,,0.00,Weather View 32 v70,2013-02-19 16:46:00,
2013-02-19 11:51:00,51.0,44.0,30.13,NW,315,2.0,14.0,77,0.01,,,0.01,Weather View 32 v70,2013-02-19 16:51:00,
2013-02-19 11:56:00,51.0,44.0,30.13,SW,225,0.0,14.0,77,0.01,,,0.01,Weather View 32 v70,2013-02-19 16:56:00,
2013-02-19 12:06:00,51.0,44.0,30.12,East,90,0.0,14.0,77,0.01,,,0.01,Weather View 32 v70,2013-02-19 17:06:00,
2013-02-19 12:11:00,51.0,44.0,30.12,SW,225,0.0,14.0,77,0.01,,,0.01,Weather View 32 v70,2013-02-19 17:11:00,
2013-02-19 12:16:00,51.0,44.0,30.11,NW,315,0.0,14.0,77,0.01,,,0.01,Weather View 32 v70,2013-02-19 17:16:00,
2013-02-19 12:21:00,51.0,44.0,30.11,SW,225,0.0,14.0,77,0.01,,,0.01,Weather View 32 v70,2013-02-19 17:21:00,
2013-02-19 12:26:00,51.0,44.0,30.10,West,270,0.0,14.0,77,0.01,,,0.01,Weather View 32 v70,2013-02-19 17:26:00,
2013-02-19 12:36:00,52.0,45.0,30.09,West,270,4.0,14.0,77,0.01,,,0.01,Weather View 32 v70,2013-02-19 17:36:00,
2013-02-19 12:41:00,52.0,45.0,30.09,West,270,0.0,14.0,77,0.01,,,0.01,Weather View 32 v70,2013-02-19 17:41:00,
2013-02-19 12:46:00,53.0,46.0,30.08,WNW,292,0.0,10.0,77,0.01,,,0.01,Weather View 32 v70,2013-02-19 17:46:00,
2013-02-19 12:51:00,53.0,46.0,30.08,East,90,4.0,10.0,77,0.00,,,0.01,Weather View 32 v70,2013-02-19 17:51:00,
2013-02-19 12:56:00,53.0,46.0,30.08,South,180,2.0,10.0,77,0.00,,,0.01,Weather View 32 v70,2013-02-19 17:56:00,
2013-02-19 13:01:00,53.0,46.0,30.08,South,180,0.0,10.0,77,0.00,,,0.01,Weather View 32 v70,2013-02-19 18:01:00,
2013-02-19 13:11:00,54.0,47.3,30.06,West,270,1.0,10.0,78,0.00,,,0.01,Weather View 32 v70,2013-02-19 18:11:00,
2013-02-19 13:16:00,54.0,47.3,30.05,West,270,0.0,11.0,78,0.00,,,0.01,Weather View 32 v70,2013-02-19 18:16:00,
2013-02-19 13:21:00,54.0,47.3,30.05,NW,315,0.0,11.0,78,0.00,,,0.01,Weather View 32 v70,2013-02-19 18:21:00,
2013-02-19 13:26:00,54.0,47.3,30.03,West,270,0.0,11.0,78,0.00,,,0.01,Weather View 32 v70,2013-02-19 18:26:00,
2013-02-19 13:31:00,54.0,47.3,30.03,West,270,0.0,11.0,78,0.00,,,0.01,Weather View 32 v70,2013-02-19 18:31:00,
2013-02-19 13:36:00,54.0,47.3,30.02,NW,315,0.0,11.0,78,0.00,,,0.01,Weather View 32 v70,2013-02-19 18:36:00,
2013-02-19 13:46:00,54.0,47.3,30.02,East,90,0.0,11.0,78,0.00,,,0.01,Weather View 32 v70,2013-02-19 18:46:00,
2013-02-19 13:51:00,54.0,47.3,30.02,WNW,292,0.0,11.0,78,0.00,,,0.01,Weather View 32 v70,2013-02-19 18:51:00,
2013-02-19 13:56:00,54.0,47.3,30.00,North,360,0.0,11.0,78,0.00,,,0.01,Weather View 32 v70,2013-02-19 18:56:00,
2013-02-19 14:01:00,54.0,47.3,30.00,NW,315,3.0,11.0,78,0.00,,,0.01,Weather View 32 v70,2013-02-19 19:01:00,
2013-02-19 14:06:00,54.0,47.3,30.00,East,90,0.0,11.0,78,0.00,,,0.01,Weather View 32 v70,2013-02-19 19:06:00,
2013-02-19 14:16:00,54.0,47.3,30.00,SE,135,3.0,11.0,78,0.00,,,0.01,Weather View 32 v70,2013-02-19 19:16:00,
2013-02-19 14:21:00,54.0,47.3,30.00,West,270,1.0,14.0,78,0.00,,,0.01,Weather View 32 v70,2013-02-19 19:21:00,
2013-02-19 14:26:00,54.0,47.3,30.01,NW,315,0.0,14.0,78,0.00,,,0.01,Weather View 32 v70,2013-02-19 19:26:00,
2013-02-19 14:31:00,54.0,47.3,30.01,SW,225,0.0,14.0,78,0.01,,,0.02,Weather View 32 v70,2013-02-19 19:31:00,
2013-02-19 14:36:00,53.0,45.6,30.00,SW,225,0.0,14.0,76,0.01,,,0.02,Weather View 32 v70,2013-02-19 19:36:00,
2013-02-19 14:41:00,53.0,45.6,30.00,SW,225,0.0,14.0,76,0.02,,,0.03,Weather View 32 v70,2013-02-19 19:41:00,
2013-02-19 14:51:00,53.0,45.3,30.00,WNW,292,0.0,14.0,75,0.03,,,0.04,Weather View 32 v70,2013-02-19 19:51:00,
2013-02-19 14:56:00,53.0,45.3,30.00,West,270,0.0,14.0,75,0.03,,,0.04,Weather View 32 v70,2013-02-19 19:56:00,
2013-02-19 15:06:00,53.0,45.3,30.00,SW,225,0.0,14.0,75,0.04,,,0.05,Weather View 32 v70,2013-02-19 20:06:00,
2013-02-19 15:11:00,53.0,45.3,30.00,WNW,292,0.0,14.0,75,0.04,,,0.05,Weather View 32 v70,2013-02-19 20:11:00,
2013-02-19 15:21:00,53.0,45.3,29.99,East,90,0.0,8.0,75,0.05,,,0.06,Weather View 32 v70,2013-02-19 20:21:00,
2013-02-19 15:26:00,52.0,44.3,29.98,West,270,0.0,8.0,75,0.05,,,0.06,Weather View 32 v70,2013-02-19 20:26:00,
2013-02-19 15:31:00,52.0,44.3,29.98,NW,315,3.0,7.0,75,0.04,,,0.06,Weather View 32 v70,2013-02-19 20:31:00,
2013-02-19 15:36:00,52.0,44.3,29.98,NW,315,0.0,7.0,75,0.04,,,0.06,Weather View 32 v70,2013-02-19 20:36:00,
2013-02-19 15:41:00,52.0,44.3,29.98,West,270,0.0,7.0,75,0.03,,,0.06,Weather View 32 v70,2013-02-19 20:41:00,
2013-02-19 15:46:00,52.0,44.3,29.98,West,270,0.0,7.0,75,0.03,,,0.06,Weather View 32 v70,2013-02-19 20:46:00,
2013-02-19 15:51:00,52.0,44.3,29.98,NW,315,0.0,7.0,75,0.02,,,0.06,Weather View 32 v70,2013-02-19 20:51:00,
2013-02-19 15:56:00,52.0,44.3,29.98,SW,225,0.0,7.0,75,0.02,,,0.06,Weather View 32 v70,2013-02-19 20:56:00,
2013-02-19 16:06:00,52.0,44.3,29.98,West,270,1.0,7.0,75,0.01,,,0.06,Weather View 32 v70,2013-02-19 21:06:00,
2013-02-19 16:11:00,52.0,44.3,29.98,West,270,0.0,4.0,75,0.01,,,0.06,Weather View 32 v70,2013-02-19 21:11:00,
2013-02-19 16:16:00,52.0,44.3,29.98,East,90,0.0,4.0,75,0.01,,,0.06,Weather View 32 v70,2013-02-19 21:16:00,
2013-02-19 16:21:00,52.0,44.3,29.98,South,180,0.0,4.0,75,0.00,,,0.06,Weather View 32 v70,2013-02-19 21:21:00,
2013-02-19 16:31:00,52.0,44.3,29.98,West,270,0.0,4.0,75,0.00,,,0.06,Weather View 32 v70,2013-02-19 21:31:00,
2013-02-19 16:36:00,52.0,44.3,29.98,SE,135,0.0,6.0,75,0.00,,,0.06,Weather View 32 v70,2013-02-19 21:36:00,
2013-02-19 16:41:00,52.0,44.3,29.98,South,180,0.0,6.0,75,0.00,,,0.06,Weather View 32 v70,2013-02-19 21:41:00,
2013-02-19 16:46:00,52.0,44.3,29.98,West,270,0.0,6.0,75,0.00,,,0.06,Weather View 32 v70,2013-02-19 21:46:00,
2013-02-19 16:51:00,52.0,44.3,29.98,SW,225,1.0,6.0,75,0.00,,,0.06,Weather View 32 v70,2013-02-19 21:51:00,
2013-02-19 16:57:00,52.0,44.3,29.98,West,270,1.0,6.0,75,0.00,,,0.06,Weather View 32 v70,2013-02-19 21:57:00,
2013-02-19 17:06:00,52.0,44.3,29.99,West,270,0.0,6.0,75,0.00,,,0.06,Weather View 32 v70,2013-02-19 22:06:00,
2013-02-19 17:11:00,52.0,44.3,29.99,NW,315,0.0,6.0,75,0.00,,,0.06,Weather View 32 v70,2013-02-19 22:11:00,
2013-02-19 17:16:00,52.0,44.3,29.99,NW,315,0.0,6.0,75,0.00,,,0.06,Weather View 32 v70,2013-02-19 22:16:00,
2013-02-19 17:21:00,52.0,44.3,29.99,West,270,0.0,6.0,75,0.00,,,0.06,Weather View 32 v70,2013-02-19 22:21:00,
2013-02-19 17:26:00,51.0,43.3,29.99,SW,225,0.0,6.0,75,0.00,,,0.06,Weather View 32 v70,2013-02-19 22:26:00,
2013-02-19 17:36:00,51.0,43.3,30.00,NW,315,0.0,6.0,75,0.00,,,0.06,Weather View 32 v70,2013-02-19 22:36:00,
2013-02-19 17:41:00,51.0,43.3,30.00,West,270,0.0,6.0,75,0.00,,,0.06,Weather View 32 v70,2013-02-19 22:41:00,
2013-02-19 17:46:00,51.0,43.3,30.00,West,270,0.0,6.0,75,0.00,,,0.06,Weather View 32 v70,2013-02-19 22:46:00,
2013-02-19 17:51:00,51.0,43.3,30.00,SW,225,0.0,6.0,75,0.00,,,0.06,Weather View 32 v70,2013-02-19 22:51:00,
2013-02-19 17:56:00,51.0,43.3,30.01,South,180,0.0,6.0,75,0.00,,,0.06,Weather View 32 v70,2013-02-19 22:56:00,
2013-02-19 18:06:00,51.0,43.3,30.02,NW,315,0.0,3.0,75,0.00,,,0.06,Weather View 32 v70,2013-02-19 23:06:00,
2013-02-19 18:11:00,51.0,43.7,30.02,South,180,0.0,3.0,76,0.00,,,0.06,Weather View 32 v70,2013-02-19 23:11:00,
2013-02-19 18:16:00,51.0,43.7,30.02,WSW,247,0.0,3.0,76,0.00,,,0.06,Weather View 32 v70,2013-02-19 23:16:00,
2013-02-19 18:21:00,51.0,43.7,30.02,West,270,0.0,3.0,76,0.00,,,0.06,Weather View 32 v70,2013-02-19 23:21:00,
2013-02-19 18:26:00,51.0,43.7,30.02,South,180,0.0,3.0,76,0.00,,,0.06,Weather View 32 v70,2013-02-19 23:26:00,
2013-02-19 18:31:00,50.0,42.7,30.02,West,270,0.0,3.0,76,0.00,,,0.06,Weather View 32 v70,2013-02-19 23:31:00,
2013-02-19 18:41:00,50.0,42.7,30.03,West,270,2.0,3.0,76,0.00,,,0.06,Weather View 32 v70,2013-02-19 23:41:00,
2013-02-19 18:46:00,50.0,42.7,30.04,West,270,0.0,3.0,76,0.00,,,0.06,Weather View 32 v70,2013-02-19 23:46:00,
2013-02-19 18:51:00,50.0,42.7,30.04,West,270,0.0,3.0,76,0.00,,,0.06,Weather View 32 v70,2013-02-19 23:51:00,
2013-02-19 18:56:00,50.0,42.7,30.04,West,270,0.0,3.0,76,0.00,,,0.06,Weather View 32 v70,2013-02-19 23:56:00,
2013-02-19 19:06:00,49.0,41.8,30.05,West,270,0.0,3.0,76,0.00,,,0.06,Weather View 32 v70,2013-02-20 00:06:00,
2013-02-19 19:11:00,49.0,41.8,30.05,West,270,0.0,3.0,76,0.00,,,0.06,Weather View 32 v70,2013-02-20 00:11:00,
2013-02-19 19:16:00,49.0,41.8,30.05,SW,225,0.0,3.0,76,0.00,,,0.06,Weather View 32 v70,2013-02-20 00:16:00,
2013-02-19 19:21:00,49.0,41.8,30.05,SW,225,0.0,3.0,76,0.00,,,0.06,Weather View 32 v70,2013-02-20 00:21:00,
2013-02-19 19:26:00,48.0,40.8,30.06,SW,225,0.0,3.0,76,0.00,,,0.06,Weather View 32 v70,2013-02-20 00:26:00,
2013-02-19 19:31:00,48.0,40.8,30.06,West,270,0.0,3.0,76,0.00,,,0.06,Weather View 32 v70,2013-02-20 00:31:00,
2013-02-19 19:41:00,48.0,40.4,30.06,North,360,0.0,3.0,75,0.00,,,0.06,Weather View 32 v70,2013-02-20 00:41:00,
2013-02-19 19:46:00,48.0,40.4,30.06,North,360,0.0,2.0,75,0.00,,,0.06,Weather View 32 v70,2013-02-20 00:46:00,
2013-02-19 19:51:00,47.0,39.1,30.06,North,360,0.0,2.0,74,0.00,,,0.06,Weather View 32 v70,2013-02-20 00:51:00,
2013-02-19 19:56:00,47.0,39.1,30.06,North,360,0.0,1.0,74,0.00,,,0.06,Weather View 32 v70,2013-02-20 00:56:00,
2013-02-19 20:01:00,47.0,39.1,30.06,West,270,0.0,1.0,74,0.00,,,0.06,Weather View 32 v70,2013-02-20 01:01:00,
2013-02-19 20:11:00,47.0,39.1,30.07,East,90,0.0,0.0,74,0.00,,,0.06,Weather View 32 v70,2013-02-20 01:11:00,
2013-02-19 20:16:00,46.0,38.2,30.07,East,90,0.0,0.0,74,0.00,,,0.06,Weather View 32 v70,2013-02-20 01:16:00,
2013-02-19 20:21:00,46.0,38.2,30.07,West,270,0.0,0.0,74,0.00,,,0.06,Weather View 32 v70,2013-02-20 01:21:00,
2013-02-19 20:26:00,46.0,38.2,30.08,North,360,0.0,0.0,74,0.00,,,0.06,Weather View 32 v70,2013-02-20 01:26:00,
2013-02-19 20:36:00,46.0,38.2,30.08,West,270,0.0,0.0,74,0.00,,,0.06,Weather View 32 v70,2013-02-20 01:36:00,
2013-02-19 20:41:00,45.0,37.2,30.08,West,270,0.0,0.0,74,0.00,,,0.06,Weather View 32 v70,2013-02-20 01:41:00,
2013-02-19 20:46:00,45.0,37.2,30.08,West,270,0.0,0.0,74,0.00,,,0.06,Weather View 32 v70,2013-02-20 01:46:00,
2013-02-19 20:51:00,45.0,37.2,30.08,West,270,0.0,0.0,74,0.00,,,0.06,Weather View 32 v70,2013-02-20 01:51:00,
2013-02-19 20:56:00,45.0,37.2,30.09,West,270,0.0,0.0,74,0.00,,,0.06,Weather View 32 v70,2013-02-20 01:56:00,
2013-02-19 21:01:00,45.0,37.2,30.09,West,270,0.0,0.0,74,0.00,,,0.06,Weather View 32 v70,2013-02-20 02:01:00,
2013-02-19 21:06:00,45.0,37.2,30.09,West,270,0.0,0.0,74,0.00,,,0.06,Weather View 32 v70,2013-02-20 02:06:00,
2013-02-19 21:16:00,45.0,37.2,30.09,West,270,0.0,0.0,74,0.00,,,0.06,Weather View 32 v70,2013-02-20 02:16:00,
2013-02-19 21:21:00,45.0,37.2,30.09,West,270,0.0,0.0,74,0.00,,,0.06,Weather View 32 v70,2013-02-20 02:21:00,
2013-02-19 21:26:00,45.0,37.2,30.10,East,90,0.0,0.0,74,0.00,,,0.06,Weather View 32 v70,2013-02-20 02:26:00,
2013-02-19 21:31:00,45.0,37.2,30.10,West,270,0.0,0.0,74,0.00,,,0.06,Weather View 32 v70,2013-02-20 02:31:00,
2013-02-19 21:36:00,45.0,37.2,30.10,West,270,0.0,0.0,74,0.00,,,0.06,Weather View 32 v70,2013-02-20 02:36:00,
2013-02-19 21:41:00,44.0,36.2,30.10,West,270,0.0,0.0,74,0.00,,,0.06,Weather View 32 v70,2013-02-20 02:41:00,
2013-02-19 21:46:00,44.0,36.2,30.10,West,270,0.0,0.0,74,0.00,,,0.06,Weather View 32 v70,2013-02-20 02:46:00,
2013-02-19 21:51:00,44.0,36.2,30.10,West,270,0.0,0.0,74,0.00,,,0.06,Weather View 32 v70,2013-02-20 02:51:00,
2013-02-19 21:56:00,44.0,36.2,30.10,West,270,0.0,0.0,74,0.00,,,0.06,Weather View 32 v70,2013-02-20 02:56:00,
2013-02-19 22:01:00,44.0,36.2,30.10,West,270,0.0,0.0,74,0.00,,,0.06,Weather View 32 v70,2013-02-20 03:01:00,
2013-02-19 22:06:00,44.0,36.2,30.10,West,270,0.0,0.0,74,0.00,,,0.06,Weather View 32 v70,2013-02-20 03:06:00,
2013-02-19 22:16:00,43.0,35.3,30.10,West,270,0.0,0.0,74,0.00,,,0.06,Weather View 32 v70,2013-02-20 03:16:00,
2013-02-19 22:21:00,43.0,35.3,30.10,West,270,0.0,0.0,74,0.00,,,0.06,Weather View 32 v70,2013-02-20 03:21:00,
2013-02-19 22:26:00,43.0,35.3,30.10,West,270,0.0,0.0,74,0.00,,,0.06,Weather View 32 v70,2013-02-20 03:26:00,
2013-02-19 22:31:00,43.0,35.3,30.10,West,270,0.0,0.0,74,0.00,,,0.06,Weather View 32 v70,2013-02-20 03:31:00,
2013-02-19 22:41:00,43.0,35.3,30.11,West,270,0.0,0.0,74,0.00,,,0.06,Weather View 32 v70,2013-02-20 03:41:00,
2013-02-19 22:46:00,42.0,34.0,30.11,West,270,0.0,0.0,73,0.00,,,0.06,Weather View 32 v70,2013-02-20 03:46:00,
2013-02-19 22:51:00,42.0,34.0,30.11,West,270,0.0,0.0,73,0.00,,,0.06,Weather View 32 v70,2013-02-20 03:51:00,
2013-02-19 22:56:00,42.0,34.0,30.11,West,270,0.0,0.0,73,0.00,,,0.06,Weather View 32 v70,2013-02-20 03:56:00,
2013-02-19 23:01:00,42.0,34.0,30.11,West,270,0.0,0.0,73,0.00,,,0.06,Weather View 32 v70,2013-02-20 04:01:00,
2013-02-19 23:06:00,42.0,34.0,30.11,West,270,0.0,0.0,73,0.00,,,0.06,Weather View 32 v70,2013-02-20 04:06:00,
2013-02-19 23:11:00,42.0,34.0,30.11,West,270,0.0,0.0,73,0.00,,,0.06,Weather View 32 v70,2013-02-20 04:11:00,
2013-02-19 23:16:00,41.0,33.0,30.11,West,270,0.0,0.0,73,0.00,,,0.06,Weather View 32 v70,2013-02-20 04:16:00,
2013-02-19 23:21:00,41.0,33.0,30.11,West,270,0.0,0.0,73,0.00,,,0.06,Weather View 32 v70,2013-02-20 04:21:00,
2013-02-19 23:26:00,41.0,33.0,30.11,West,270,0.0,0.0,73,0.00,,,0.06,Weather View 32 v70,2013-02-20 04:26:00,
2013-02-19 23:31:00,41.0,33.0,30.11,West,270,0.0,0.0,73,0.00,,,0.06,Weather View 32 v70,2013-02-20 04:31:00,
2013-02-19 23:36:00,41.0,33.0,30.11,West,270,0.0,0.0,73,0.00,,,0.06,Weather View 32 v70,2013-02-20 04:36:00,
2013-02-19 23:41:00,41.0,33.0,30.11,West,270,0.0,0.0,73,0.00,,,0.06,Weather View 32 v70,2013-02-20 04:41:00,
2013-02-19 23:46:00,41.0,33.0,30.12,West,270,0.0,0.0,73,0.00,,,0.06,Weather View 32 v70,2013-02-20 04:46:00,
2013-02-19 23:56:00,40.0,32.0,30.12,West,270,0.0,0.0,73,0.00,,,0.06,Weather View 32 v70,2013-02-20 04:56:00,